#timestamp,LO_Frequency,Hit,StdDev 
1522933215.1,286047001.8,P
1522933216.0,286047001.8,P
1522933235.8,286047001.5,P
1522933255.6,286047004.4,Y
1522933275.5,286047002.8,P
1522933295.3,286047002.5,P
1522933315.1,286047002.8,P
1522933335.9,286047002.5,Y
1522933355.7,286047000.5,P
1522933375.5,286047002.7,N
1522933395.4,286047002.3,N
1522933415.2,286047002.6,N
1522933435.0,286047001.4,N
1522933435.9,286047001.4,N
1522933455.8,286047004.3,Y
1522933475.6,286047002.5,P
1522933495.4,286047002.7,P
1522933515.3,286047002.5,P
1522933535.1,286047001.8,Y
1522933555.8,286047000.8,P
1522933575.7,286046999.7,N
1522933595.5,286047002.4,N
1522933615.3,286047002.2,N
1522933635.2,286047001.7,N
1522933655.9,286047004.4,Y
1522933675.7,286047002.6,P
1522933695.6,286047002.0,P
1522933715.4,286047001.4,P
1522933735.2,286047004.2,Y
1522933755.1,286047004.3,P
1522933756.0,286047004.3,P
1522933775.8,286047004.1,P
1522933795.6,286047003.3,Y
1522933815.5,286047002.5,P
1522933835.3,286047002.6,P
1522933855.1,286047001.5,N
1522933875.9,286047001.4,N
1522933895.7,286047003.8,Y
1522933915.5,286047002.5,P
1522933935.4,286047001.5,P
1522933955.2,286047001.3,N
1522933975.0,286047004.1,Y
1522933975.9,286047004.1,P
1522933995.8,286047002.4,N
1522934015.6,286047002.4,N
1522934035.4,286047002.0,N
1522934055.3,286047001.8,N
1522934075.1,286047004.4,Y
1522934095.8,286047000.3,P
1522934115.7,286047002.7,N
1522934135.5,286047002.5,N
1522934155.3,286046999.9,N
1522934175.2,286047002.8,N
1522934195.9,286047002.3,N
1522934215.7,286047002.5,N
1522934235.6,286047002.6,N
1522934255.4,286047001.8,N
1522934275.2,286047001.9,N
1522934295.0,286047001.5,N
1522934296.0,286047001.5,N
1522934315.8,286047001.8,N
1522934335.6,286047003.9,Y
1522934355.5,286047002.1,P
1522934375.3,286047002.0,P
1522934395.1,286047004.3,P
1522934415.9,286047003.6,Y
1522934435.7,286047002.3,P
1522934455.5,286047002.0,P
1522934475.3,286047001.7,P
1522934495.2,286047003.9,Y
1522934515.0,286047000.1,P
1522934515.9,286047000.1,N
1522934535.8,286047002.3,N
1522934555.6,286047002.2,N
1522934575.4,286047001.8,N
1522934595.2,286047001.6,N
1522934615.1,286047004.2,Y
1522934616.0,286047004.2,P
1522934635.8,286047002.2,N
1522934655.6,286047001.5,N
1522934675.5,286047004.4,Y
1522934695.3,286047000.4,P
1522934715.2,286047000.1,N
1522934735.9,286047000.4,N
1522934755.7,286046999.8,N
1522934775.5,286047002.5,N
1522934795.4,286047001.4,N
1522934815.2,286047001.5,N
1522934835.0,286047001.6,N
1522934835.9,286047001.6,N
1522934855.8,286047003.5,Y
1522934875.6,286047001.5,P
1522934895.4,286047003.9,P
1522934915.3,286047004.4,P
1522934935.1,286047004.0,N
1522934955.8,286047003.9,N
1522934975.7,286047003.8,N
1522934995.5,286047003.2,N
1522935015.3,286047003.1,N
1522935035.2,286047003.0,N
1522935055.9,286047005.7,Y
1522935075.7,286047002.4,P
1522935095.6,286047002.3,P
1522935115.4,286047002.6,P
1522935135.2,286047002.4,Y
1522935155.1,286046998.3,P
1522935156.0,286046998.3,N
1522935175.8,286046999.0,N
1522935195.6,286046998.6,N
1522935215.5,286047000.8,N
1522935235.3,286047000.7,N
1522935255.1,286047001.0,N
1522935275.9,286047001.1,N
1522935295.7,286047000.0,N
1522935315.5,286047000.9,N
1522935335.3,286047000.4,N
1522935355.2,286047000.1,N
1522935375.0,286047000.2,N
1522935375.9,286047000.2,N
1522935395.7,286047000.2,N
1522935415.6,286047001.6,N
1522935435.4,286047002.0,N
1522935455.2,286047002.5,N
1522935475.1,286047001.4,N
1522935476.0,286047001.4,N
1522935495.8,286047003.7,Y
1522935515.6,286047001.9,P
1522935535.5,286047002.2,P
1522935555.3,286047003.6,P
1522935575.1,286047003.8,Y
1522935595.9,286047002.6,P
1522935615.7,286047002.2,P
1522935635.5,286047002.2,P
1522935655.4,286047001.5,Y
1522935675.2,286047000.9,P
1522935695.0,286046998.1,N
1522935695.9,286046998.1,N
1522935715.8,286046998.5,N
1522935735.6,286047001.1,N
1522935755.4,286047000.8,N
1522935775.3,286047001.1,N
1522935795.1,286046998.1,N
1522935796.0,286046998.1,N
1522935815.8,286046998.8,N
1522935835.7,286046998.8,N
1522935855.5,286046998.4,N
1522935875.3,286046998.8,N
1522935895.1,286046998.4,N
1522935915.9,286046998.4,N
1522935935.7,286047001.1,N
1522935955.5,286046998.3,N
1522935975.4,286047000.1,N
1522935995.2,286047009.2,Y
1522936015.0,286047007.3,P
1522936015.9,286047007.3,N
1522936035.8,286047007.6,N
1522936055.6,286047005.9,N
1522936075.4,286047003.1,N
1522936095.3,286047003.4,N
1522936115.1,286047003.5,N
1522936135.8,286047005.5,N
1522936155.7,286047007.2,N
1522936175.5,286047005.1,N
1522936195.3,286047005.4,N
1522936215.2,286047005.7,N
1522936235.9,286047007.5,Y
1522936255.7,286047002.4,P
1522936275.6,286047000.2,N
1522936295.4,286047000.3,N
1522936315.2,286047000.4,N
1522936335.0,286047000.5,N
1522936336.0,286047000.5,N
1522936355.8,286047000.6,N
1522936375.6,286047000.6,N
1522936395.4,286047001.0,N
1522936415.3,286047000.9,N
1522936435.1,286046999.9,N
1522936455.8,286047000.0,N
1522936475.7,286047001.0,N
1522936495.5,286046999.9,N
1522936515.3,286047000.2,N
1522936535.2,286047000.0,N
1522936555.9,286047000.5,N
1522936575.7,286047000.0,N
1522936595.6,286047000.4,N
1522936615.4,286047000.4,N
1522936635.2,286047001.1,N
1522936655.0,286047000.7,N
1522936655.9,286047000.7,N
1522936675.8,286046998.1,N
1522936695.6,286047000.5,N
1522936715.4,286047001.1,N
1522936735.3,286047000.4,N
1522936755.1,286047000.8,N
1522936775.8,286047000.4,N
1522936795.7,286047001.1,N
